EDT,Max TemperatureF,Mean TemperatureF,Min TemperatureF,Max Dew PointF,MeanDew PointF,Min DewpointF,Max Humidity, Mean Humidity, Min Humidity, Max Sea Level PressureIn, Mean Sea Level PressureIn, Min Sea Level PressureIn, Max VisibilityMiles, Mean VisibilityMiles, Min VisibilityMiles, Max Wind SpeedMPH, Mean Wind SpeedMPH, Max Gust SpeedMPH,PrecipitationIn, CloudCover, Events, WindDirDegrees
2013-6-1,84,78,71,75,72,70,100,92,70,30.06,30.02,29.98,10,9,1,10,4,,1.64,6,Rain-Thunderstorm,106
2013-6-2,87,78,69,73,72,66,100,85,51,30.02,29.98,29.93,10,8,0,14,2,18,0.02,3,Fog-Rain,199
2013-6-3,86,78,69,73,71,70,100,88,62,30.03,29.97,29.94,10,9,2,13,3,18,0.00,2,Thunderstorm,229
2013-6-4,80,76,71,72,70,66,100,84,61,30.07,30.02,29.97,10,10,10,10,2,16,0.00,5,Rain-Thunderstorm,179
2013-6-5,82,76,71,77,73,70,100,91,70,30.04,29.98,29.92,10,10,5,10,3,16,0.12,3,Rain,123
2013-6-6,80,74,69,77,72,70,100,95,88,29.93,29.84,29.77,10,8,0,17,9,29,3.77,5,Rain-Thunderstorm,173
2013-6-7,87,79,71,73,72,70,100,86,62,29.99,29.92,29.84,10,10,5,17,8,25,0.01,4,Rain,217
2013-6-8,84,78,71,77,73,72,100,94,74,30.12,30.06,29.98,10,10,5,17,3,22,0.21,2,Rain-Thunderstorm,172
2013-6-9,87,78,69,75,72,66,100,82,49,30.12,30.09,30.04,10,9,3,13,5,18,0.02,1,Rain,131
2013-6-10,87,79,71,77,73,72,100,83,62,30.11,30.08,30.02,10,9,5,10,4,,0.00,1,Rain,134
2013-6-11,87,79,71,73,72,68,100,85,52,30.10,30.06,30.03,10,9,5,12,3,16,0.04,1,Rain-Thunderstorm,82
2013-6-12,89,80,71,77,73,70,100,88,58,30.09,30.07,30.05,10,8,2,18,2,24,0.10,2,Rain-Thunderstorm,35
2013-6-13,87,78,69,73,71,68,100,81,55,30.07,30.01,29.95,10,10,7,21,2,25,0.00,0,,231
2013-6-14,91,81,71,73,72,68,100,77,49,29.99,29.94,29.87,10,10,7,15,6,21,0.00,1,,263
2013-6-15,89,79,69,73,72,70,100,80,55,30.08,30.01,29.95,10,9,3,9,3,,0.00,2,,219
2013-6-16,89,80,71,75,73,70,100,84,58,30.10,30.07,30.04,10,9,3,13,3,18,0.00,2,Rain-Thunderstorm,104
2013-6-17,89,80,71,75,72,64,100,75,43,30.09,30.06,30.01,10,10,4,13,5,18,0.00,1,,168
2013-6-18,89,81,73,75,72,66,100,75,46,30.09,30.05,29.97,10,10,5,15,5,20,0.05,2,Rain-Thunderstorm,184
2013-6-19,89,80,71,77,72,64,100,81,43,30.08,30.04,29.99,10,9,4,21,6,25,0.25,2,Rain-Thunderstorm,201
2013-6-20,87,78,69,75,72,68,100,85,58,30.11,30.08,30.04,10,10,2,20,2,28,0.07,1,Rain-Thunderstorm,188
2013-6-21,86,78,69,75,71,68,100,86,62,30.15,30.10,30.06,10,9,1,12,2,17,1.03,2,Rain-Thunderstorm,84
2013-6-22,87,78,69,73,71,68,100,82,52,30.14,30.10,30.06,10,8,2,15,2,21,0.12,1,Rain-Thunderstorm,101
2013-6-23,87,78,69,73,72,70,100,85,58,30.17,30.12,30.08,10,10,2,14,3,22,0.20,1,Rain-Thunderstorm,115
2013-6-24,87,78,69,73,71,70,100,80,55,30.19,30.14,30.10,10,10,10,10,3,18,0.00,2,Rain-Thunderstorm,103
2013-6-25,87,78,69,73,72,70,100,81,58,30.17,30.11,30.06,10,10,7,13,3,17,0.00,2,Thunderstorm,95
2013-6-26,87,79,71,75,72,70,100,88,62,30.11,30.07,30.02,10,9,5,14,4,20,0.07,1,Rain-Thunderstorm,136
2013-6-27,87,78,69,77,72,68,100,85,52,30.08,30.03,29.97,10,9,2,13,3,,0.05,1,Rain-Thunderstorm,176
2013-6-28,89,79,69,75,72,68,100,85,62,30.01,29.95,29.87,10,10,1,10,3,39,1.56,2,Rain-Thunderstorm,198
2013-6-29,89,80,71,77,73,70,100,87,59,29.93,29.89,29.83,10,10,10,14,5,21,0.55,2,Rain-Thunderstorm,198
2013-6-30,86,78,71,77,73,72,100,92,70,29.95,29.90,29.86,10,8,1,18,4,37,3.48,3,Rain-Thunderstorm,203